Regional Weather Roundup
Issued by NWS

Home | Current Version | Previous Version | Text Only | Print | Product List | Glossary Off
Versions: 1 2 3 4 5 6 7 8 9 10 11 12 13 14 15 16 17 18 19 20 21 22 23 24 25 26 27 28 29 30 31 32 33 34 35 36 37 38 39 40 41 42 43 44 45 46 47 48 49 50

000
ASUS43 KOAX 020910
RWRNE

WEATHER ROUNDUP FOR NEBRASKA
NATIONAL WEATHER SERVICE OMAHA NE
300 AM CST MON MAR 02 2015

NOTES: SATELLITE DATA IS BEING USED TO AUGMENT CLOUD COVER ABOVE
       12000 FEET.
       "FAIR" INDICATES FEW OR NO CLOUDS BELOW 12,000 FEET WITH NO
       SIGNIFICANT WEATHER AND/OR OBSTRUCTIONS TO VISIBILITY.

  * THESE STATIONS DO NOT REPORT WEATHER SUCH AS RAIN...SNOW OR FOG.

NEZ001>004-019>022-054>056-021000-
NEBRASKA PANHANDLE

CITY           SKY/WX    TMP DP  RH WIND       PRES   REMARKS
SCOTTSBLUFF    MOCLDY    27  18  69 E9        30.15F WCI  18
ALLIANCE       CLOUDY    22  14  71 SE12      30.19F WCI  10
CHADRON        PTCLDY    21  11  65 CALM      30.19F
KIMBALL        CLOUDY    23  19  84 S8        30.12F WCI  13
SIDNEY         CLOUDY    26  18  71 S12       30.19F WCI  16
$$

NEZ057>060-069>072-079>082-021000-
SOUTHWEST NEBRASKA

CITY           SKY/WX    TMP DP  RH WIND       PRES   REMARKS
NORTH PLATTE   MOCLDY    24  12  60 SE10      30.32F WCI  14
IMPERIAL         N/A     29  18  63 S7        30.27F WCI  22
LEXINGTON      CLOUDY    30  13  50 SE9       30.36F WCI  21
MCCOOK         CLOUDY    32  21  64 S5        30.34F WCI  27
OGALLALA       MOCLDY    23  15  71 NE3       30.25F
$$

NEZ005>010-023>029-035>040-094-021000-
NORTH CENTRAL NEBRASKA

CITY           SKY/WX    TMP DP  RH WIND       PRES   REMARKS
VALENTINE      PTCLDY    15   9  76 CALM      30.32F
AINSWORTH      PTCLDY    17  11  75 S6        30.33F WCI   9
BROKEN BOW     MOCLDY    20  12  71 CALM      30.36F
O`NEILL        PTCLDY    17  10  75 S5        30.40F WCI   9
ORD            PTCLDY    17   9  70 CALM      30.40F
THEDFORD       PTCLDY    23  11  61 SE6       30.31F WCI  15
$$

NEZ041-046>049-061>064-073>077-083>087-021000-
SOUTH CENTRAL NEBRASKA

CITY           SKY/WX    TMP DP  RH WIND       PRES   REMARKS
GRAND ISLAND   MOCLDY    26  14  60 E6        30.43F WCI  19
AURORA         MOCLDY    26  14  60 SE6       30.42F WCI  19
HASTINGS       MOCLDY    28  13  53 SE7       30.41F WCI  21
HEBRON         MOCLDY    26  22  84 CALM      30.45F
HOLDREGE       CLOUDY    28  14  54 E6        30.37F WCI  22
KEARNEY *      MOCLDY    27  12  54 SE8       30.39F WCI  18
YORK           MOCLDY    27  14  59 E8        30.44F WCI  18
$$

NEZ011>018-030>034-042>045-021000-
NORTHEAST NEBRASKA

CITY           SKY/WX    TMP DP  RH WIND       PRES   REMARKS
NORFOLK        PTCLDY    17  12  80 CALM      30.44F
ALBION         MOCLDY    15   8  75 CALM      30.43F
BLAIR          MOCLDY    25  15  65 E3        30.46F
COLUMBUS *     PTCLDY    19   9  63 CALM      30.47F
FREMONT        PTCLDY    23  16  76 CALM      30.48S
TEKAMAH        MOCLDY    17  12  80 CALM      30.50S
WAYNE          PTCLDY     8   3  81 CALM      30.47S
$$

NEZ050>053-065>068-078-088>093-021000-
SOUTHEAST NEBRASKA

CITY           SKY/WX    TMP DP  RH WIND       PRES   REMARKS
LINCOLN        MOCLDY    25  14  63 CALM      30.48F
OMAHA EPPLEY   CLOUDY    22  16  78 CALM      30.50S
BEATRICE       MOCLDY    24  19  84 CALM      30.46F
FALLS CITY     MOCLDY    26  20  77 CALM      30.48F
NEBRASKA CITY  MOCLDY    25  16  68 N3        30.48F
PLATTSMOUTH    MOCLDY    24  14  65 NE5       30.48F WCI  18
$$

NEZ044-045-051>053-067-021000-
OMAHA AREA

CITY           SKY/WX    TMP DP  RH WIND       PRES   REMARKS
OMAHA EPPLEY   CLOUDY    22  16  78 CALM      30.50S
BLAIR          MOCLDY    25  15  65 E3        30.46F
FREMONT        PTCLDY    23  16  76 CALM      30.48S
MILLARD        PTCLDY    23  17  78 CALM      30.49F
OFFUTT AFB     MOCLDY    19  14  82 CALM      30.49S
PLATTSMOUTH    MOCLDY    24  14  65 NE5       30.48F WCI  18
WAHOO          FAIR      22  14  71 CALM      30.48F
$$


USA.gov is the U.S. government's official web portal to all federal, state and local government web resources and services.